Location: Gälforsberget
(66.6500°N, 22.4167°E)
Time: 17:55:10
(UTC+00:00)

Cosmos 2184 Rocket - Pass Details

Date: 11 April 2026
Orbit: 957 x 1002 km, 82.9° (Epoch: 16 May)

Event Time Altitude Azimuth Distance (km) Brightness Sun altitude
Rises 18:48:33 0° 196° (SSW) 3,722 6.8 -4.9°
Reaches altitude 10° 18:51:05 10° 197° (SSW) 2,774 6.2 -5.1°
Maximum altitude 18:57:29 87° 287° (WNW) 1,008 4.2 -5.6°
Drops below altitude 10° 19:03:53 10° 18° (NNE) 2,766 6.7 -6.1°
Sets 19:06:24 0° 19° (NNE) 3,712 7.3 -6.3°
